Time,TemperatureF,DewpointF,PressureIn,WindDirection,WindDirectionDegrees,WindSpeedMPH,WindSpeedGustMPH,Humidity,HourlyPrecipIn,Conditions,Clouds,dailyrainin,SoftwareType,DateUTC
2013-04-12 00:14:00,50.1,49.0,29.54,West,278,9.0,16.0,94,0.04,,,0.02,weatherlink.com 1.10,2013-04-12 04:14:00,
2013-04-12 00:29:00,49.9,48.0,29.55,WNW,297,13.0,16.0,94,0.05,,,0.03,weatherlink.com 1.10,2013-04-12 04:29:00,
2013-04-12 00:44:00,49.2,48.0,29.54,NW,305,19.0,23.0,94,0.05,,,0.04,weatherlink.com 1.10,2013-04-12 04:44:00,
2013-04-12 01:00:00,48.1,46.0,29.55,NW,304,16.0,23.0,93,0.04,,,0.04,weatherlink.com 1.10,2013-04-12 05:00:00,
2013-04-12 01:15:00,47.0,45.0,29.55,WNW,297,15.0,22.0,93,0.02,,,0.04,weatherlink.com 1.10,2013-04-12 05:15:00,
2013-04-12 01:30:00,46.7,45.0,29.57,WNW,293,15.0,20.0,93,0.01,,,0.04,weatherlink.com 1.10,2013-04-12 05:30:00,
2013-04-12 01:45:00,45.6,43.0,29.57,NW,304,15.0,24.0,91,0.00,,,0.04,weatherlink.com 1.10,2013-04-12 05:45:00,
2013-04-12 02:00:00,44.2,42.0,29.58,WNW,293,16.0,24.0,91,0.00,,,0.04,weatherlink.com 1.10,2013-04-12 06:00:00,
2013-04-12 02:15:00,44.0,42.0,29.58,NW,312,19.0,22.0,91,0.00,,,0.04,weatherlink.com 1.10,2013-04-12 06:15:00,
2013-04-12 02:30:00,44.0,41.0,29.59,NW,304,10.0,22.0,90,0.00,,,0.04,weatherlink.com 1.10,2013-04-12 06:30:00,
2013-04-12 02:45:00,43.8,41.0,29.59,WNW,285,16.0,22.0,89,0.00,,,0.04,weatherlink.com 1.10,2013-04-12 06:45:00,
2013-04-12 03:00:00,43.2,40.0,29.59,NW,304,14.0,25.0,87,0.00,,,0.04,weatherlink.com 1.10,2013-04-12 07:00:00,
2013-04-12 03:15:00,42.7,39.0,29.59,WNW,298,9.0,21.0,88,0.00,,,0.04,weatherlink.com 1.10,2013-04-12 07:15:00,
2013-04-12 03:30:00,42.1,39.0,29.58,WNW,295,18.0,24.0,88,0.00,,,0.04,weatherlink.com 1.10,2013-04-12 07:30:00,
2013-04-12 03:45:00,41.4,37.0,29.58,West,277,10.0,20.0,84,0.00,,,0.04,weatherlink.com 1.10,2013-04-12 07:45:00,
2013-04-12 04:00:00,40.9,36.0,29.59,WNW,298,16.0,21.0,84,0.00,,,0.04,weatherlink.com 1.10,2013-04-12 08:00:00,
2013-04-12 04:15:00,40.6,36.0,29.58,WNW,298,14.0,20.0,84,0.00,,,0.04,weatherlink.com 1.10,2013-04-12 08:15:00,
2013-04-12 04:30:00,40.0,35.0,29.59,West,280,14.0,25.0,82,0.00,,,0.04,weatherlink.com 1.10,2013-04-12 08:30:00,
2013-04-12 04:45:00,39.8,34.0,29.59,WNW,288,14.0,20.0,79,0.00,,,0.04,weatherlink.com 1.10,2013-04-12 08:45:00,
2013-04-12 05:00:00,39.6,34.0,29.60,WNW,299,13.0,20.0,80,0.00,,,0.04,weatherlink.com 1.10,2013-04-12 09:00:00,
2013-04-12 05:15:00,39.5,34.0,29.61,WNW,300,11.0,18.0,79,0.00,,,0.04,weatherlink.com 1.10,2013-04-12 09:15:00,
2013-04-12 05:30:00,39.3,33.0,29.62,West,281,13.0,21.0,77,0.00,,,0.04,weatherlink.com 1.10,2013-04-12 09:30:00,
2013-04-12 05:45:00,39.2,32.0,29.62,WNW,298,13.0,19.0,76,0.00,,,0.04,weatherlink.com 1.10,2013-04-12 09:45:00,
2013-04-12 06:00:00,39.1,33.0,29.62,WNW,295,16.0,18.0,79,0.00,,,0.04,weatherlink.com 1.10,2013-04-12 10:00:00,
2013-04-12 06:15:00,39.1,33.0,29.63,WNW,284,9.0,13.0,80,0.00,,,0.04,weatherlink.com 1.10,2013-04-12 10:15:00,
2013-04-12 06:30:00,38.9,33.0,29.64,West,281,12.0,18.0,79,0.00,,,0.04,weatherlink.com 1.10,2013-04-12 10:30:00,
2013-04-12 06:45:00,38.5,33.0,29.64,West,260,7.0,18.0,80,0.00,,,0.04,weatherlink.com 1.10,2013-04-12 10:45:00,
2013-04-12 07:01:00,38.1,32.0,29.64,WNW,287,11.0,22.0,77,0.00,,,0.04,weatherlink.com 1.10,2013-04-12 11:01:00,
2013-04-12 07:16:00,37.8,31.0,29.65,WNW,299,13.0,19.0,77,0.00,,,0.04,weatherlink.com 1.10,2013-04-12 11:16:00,
2013-04-12 07:31:00,37.6,31.0,29.66,NW,304,15.0,18.0,77,0.00,,,0.04,weatherlink.com 1.10,2013-04-12 11:31:00,
2013-04-12 08:31:00,37.5,32.0,29.68,West,269,10.0,13.0,79,0.00,,,0.04,weatherlink.com 1.10,2013-04-12 12:31:00,
2013-04-12 09:01:00,37.4,31.0,29.69,West,276,12.0,15.0,79,0.00,,,0.04,weatherlink.com 1.10,2013-04-12 13:01:00,
2013-04-12 09:16:00,37.7,30.0,29.69,WNW,285,12.0,17.0,75,0.00,,,0.04,weatherlink.com 1.10,2013-04-12 13:16:00,
2013-04-12 09:31:00,38.1,30.0,29.69,West,274,11.0,16.0,73,0.00,,,0.04,weatherlink.com 1.10,2013-04-12 13:31:00,
2013-04-12 09:46:00,38.6,31.0,29.70,WNW,297,5.0,16.0,73,0.00,,,0.04,weatherlink.com 1.10,2013-04-12 13:46:00,
2013-04-12 10:01:00,38.4,31.0,29.70,SW,235,14.0,15.0,74,0.00,,,0.04,weatherlink.com 1.10,2013-04-12 14:01:00,
2013-04-12 10:16:00,38.9,32.0,29.70,SW,229,8.0,13.0,76,0.00,,,0.04,weatherlink.com 1.10,2013-04-12 14:16:00,
2013-04-12 10:31:00,39.5,31.0,29.70,SW,232,9.0,14.0,72,0.00,,,0.04,weatherlink.com 1.10,2013-04-12 14:31:00,
2013-04-12 10:46:00,39.9,32.0,29.70,WSW,240,6.0,17.0,73,0.00,,,0.04,weatherlink.com 1.10,2013-04-12 14:46:00,
2013-04-12 11:16:00,40.4,31.0,29.71,West,260,14.0,19.0,68,0.00,,,0.04,weatherlink.com 1.10,2013-04-12 15:16:00,
2013-04-12 11:31:00,40.4,30.0,29.71,West,266,12.0,19.0,67,0.00,,,0.04,weatherlink.com 1.10,2013-04-12 15:31:00,
2013-04-12 11:46:00,40.7,31.0,29.71,West,262,5.0,19.0,68,0.00,,,0.04,weatherlink.com 1.10,2013-04-12 15:46:00,
2013-04-12 12:01:00,41.5,30.0,29.71,WSW,249,16.0,21.0,63,0.00,,,0.04,weatherlink.com 1.10,2013-04-12 16:01:00,
2013-04-12 12:16:00,41.8,30.0,29.71,WNW,287,13.0,21.0,63,0.00,,,0.04,weatherlink.com 1.10,2013-04-12 16:16:00,
2013-04-12 12:31:00,42.8,30.0,29.72,WSW,250,16.0,19.0,62,0.00,,,0.04,weatherlink.com 1.10,2013-04-12 16:31:00,
2013-04-12 12:46:00,42.2,31.0,29.72,WSW,253,9.0,18.0,64,0.00,,,0.04,weatherlink.com 1.10,2013-04-12 16:46:00,
2013-04-12 13:01:00,41.9,31.0,29.73,West,259,16.0,19.0,66,0.00,,,0.04,weatherlink.com 1.10,2013-04-12 17:01:00,
2013-04-12 13:16:00,42.3,32.0,29.73,WNW,297,9.0,20.0,67,0.00,,,0.04,weatherlink.com 1.10,2013-04-12 17:16:00,
2013-04-12 14:01:00,42.3,31.0,29.74,West,280,13.0,23.0,65,0.00,,,0.04,weatherlink.com 1.10,2013-04-12 18:01:00,
2013-04-12 15:31:00,42.6,32.0,29.77,West,276,10.0,23.0,66,0.00,,,0.04,weatherlink.com 1.10,2013-04-12 19:31:00,
2013-04-12 15:47:00,42.1,31.0,29.78,West,280,19.0,26.0,66,0.00,,,0.04,weatherlink.com 1.10,2013-04-12 19:47:00,
2013-04-12 16:02:00,42.1,32.0,29.79,WNW,287,11.0,20.0,68,0.00,,,0.04,weatherlink.com 1.10,2013-04-12 20:02:00,
2013-04-12 16:17:00,42.2,32.0,29.79,West,277,13.0,17.0,68,0.00,,,0.04,weatherlink.com 1.10,2013-04-12 20:17:00,
2013-04-12 16:32:00,43.2,33.0,29.79,West,269,7.0,21.0,67,0.00,,,0.04,weatherlink.com 1.10,2013-04-12 20:32:00,
2013-04-12 17:02:00,43.3,32.0,29.80,West,280,10.0,26.0,64,0.00,,,0.04,weatherlink.com 1.10,2013-04-12 21:02:00,
2013-04-12 17:17:00,43.2,32.0,29.80,West,264,9.0,19.0,65,0.00,,,0.04,weatherlink.com 1.10,2013-04-12 21:17:00,
2013-04-12 17:32:00,43.2,32.0,29.81,WNW,283,12.0,22.0,64,0.00,,,0.04,weatherlink.com 1.10,2013-04-12 21:32:00,
2013-04-12 17:47:00,43.1,32.0,29.82,WNW,296,13.0,18.0,65,0.00,,,0.04,weatherlink.com 1.10,2013-04-12 21:47:00,
2013-04-12 18:02:00,42.8,33.0,29.82,WNW,283,9.0,21.0,68,0.00,,,0.04,weatherlink.com 1.10,2013-04-12 22:02:00,
2013-04-12 18:17:00,42.9,33.0,29.83,SW,229,7.0,16.0,68,0.00,,,0.04,weatherlink.com 1.10,2013-04-12 22:17:00,
2013-04-12 18:32:00,42.8,33.0,29.84,WSW,252,7.0,16.0,69,0.00,,,0.04,weatherlink.com 1.10,2013-04-12 22:32:00,
2013-04-12 18:47:00,42.8,34.0,29.84,West,277,7.0,16.0,71,0.00,,,0.04,weatherlink.com 1.10,2013-04-12 22:47:00,
2013-04-12 19:02:00,42.7,34.0,29.84,WNW,288,10.0,17.0,71,0.00,,,0.04,weatherlink.com 1.10,2013-04-12 23:02:00,
2013-04-12 19:17:00,42.7,34.0,29.85,West,266,8.0,16.0,71,0.00,,,0.04,weatherlink.com 1.10,2013-04-12 23:17:00,
2013-04-12 19:32:00,42.7,35.0,29.85,NW,308,12.0,18.0,73,0.00,,,0.04,weatherlink.com 1.10,2013-04-12 23:32:00,
2013-04-12 19:47:00,42.6,35.0,29.85,WNW,292,12.0,21.0,73,0.00,,,0.04,weatherlink.com 1.10,2013-04-12 23:47:00,
2013-04-12 20:02:00,42.4,35.0,29.86,WNW,302,10.0,15.0,75,0.00,,,0.04,weatherlink.com 1.10,2013-04-13 00:02:00,
2013-04-12 20:17:00,41.6,35.0,29.86,NW,305,13.0,26.0,78,0.00,,,0.04,weatherlink.com 1.10,2013-04-13 00:17:00,
2013-04-12 20:32:00,41.7,35.0,29.86,WNW,295,13.0,18.0,78,0.00,,,0.04,weatherlink.com 1.10,2013-04-13 00:32:00,
2013-04-12 20:47:00,41.7,36.0,29.87,WNW,293,16.0,20.0,79,0.00,,,0.04,weatherlink.com 1.10,2013-04-13 00:47:00,
2013-04-12 21:02:00,41.2,36.0,29.88,WNW,285,11.0,15.0,80,0.00,,,0.04,weatherlink.com 1.10,2013-04-13 01:02:00,
2013-04-12 21:17:00,40.7,35.0,29.88,WNW,285,19.0,24.0,79,0.00,,,0.04,weatherlink.com 1.10,2013-04-13 01:17:00,
2013-04-12 21:32:00,40.3,35.0,29.89,WNW,297,10.0,17.0,82,0.00,,,0.04,weatherlink.com 1.10,2013-04-13 01:32:00,
2013-04-12 21:47:00,40.4,35.0,29.90,NW,326,9.0,16.0,82,0.00,,,0.04,weatherlink.com 1.10,2013-04-13 01:47:00,
2013-04-12 22:02:00,39.8,35.0,29.90,WNW,300,8.0,17.0,84,0.00,,,0.04,weatherlink.com 1.10,2013-04-13 02:02:00,
2013-04-12 22:17:00,39.9,35.0,29.90,WNW,300,8.0,12.0,83,0.00,,,0.04,weatherlink.com 1.10,2013-04-13 02:17:00,
2013-04-12 22:32:00,40.3,35.0,29.90,West,274,8.0,13.0,80,0.00,,,0.04,weatherlink.com 1.10,2013-04-13 02:32:00,
2013-04-12 22:47:00,40.9,33.0,29.90,WNW,288,13.0,14.0,74,0.00,,,0.04,weatherlink.com 1.10,2013-04-13 02:47:00,
2013-04-12 23:17:00,41.0,33.0,29.91,WNW,298,6.0,16.0,74,0.00,,,0.04,weatherlink.com 1.10,2013-04-13 03:17:00,
2013-04-12 23:32:00,40.9,33.0,29.91,WNW,290,8.0,14.0,74,0.00,,,0.04,weatherlink.com 1.10,2013-04-13 03:32:00,
2013-04-12 23:47:00,40.8,33.0,29.91,WNW,302,6.0,14.0,74,0.00,,,0.04,weatherlink.com 1.10,2013-04-13 03:47:00,